STARLINK-11673, 64318

Orbit data source: Space-Track

STARLINK-11673, 64318 is a payload satellite owned by SpaceX/Seattle (US) in LEO that was launched on Tue, 10 Jun 2025 UTC via an FALCON 9 launch vehicle from the Air Force Eastern Test Range (AFETR). Payload-class satellites include a variety of spacecraft equipped with specific instruments for various scientific and technological missions. These include communications satellites like Starlink; space stations such as the ISS; scientific satellites like the Hubble; Earth observation satellites from companies like Planet Labs, Umbra, and HawkEye 360; GPS; miniature CubeSats for education and research; and military/defense satellites.

Loading next visibility...
Identifier
64318, 2025-124B
Orbit
LEO
Country
Flag of USUS
Related business
Manufacturer
SpaceX/Seattle
Mission
Operational Commercial Communications
Bus & Motor
STARLINK V2MD, Unknown motor
Mass
960 kg wet, ~910 kg dry
Launch date (UTC)
2025-06-10 (9 months ago)
Launch vehicle
FALCON 9
Launch site
Air Force Eastern Test Range (AFETR)
Object type
Payload
Rocket body
Debris
Shape & HBR
Box + 2 Pan, 18.1 m
Radar Cross Section
36.964 m², Large (>1 m²)

Expand to show TLE details & history
Last TLE update: 11 hours ago

TLE from 11 hours ago
0 STARLINK-11673
1 64318U 25124B   26074.47071583  .00254880  00000-0  19221-2 0  9994
2 64318  42.9989 354.3635 0002239 296.5034  63.5604 15.70931218 43748
Epoch: 2026-03-15T11:17Z
TLE epoch observation values (Epoch: 2026-03-15T11:17:49.847Z)
Latitude
-0.00002°
Longitude
11.8287°
Altitude
355.334 km
Speed
7.698 km/s
True Right ascension
23h 37m 27s
True Declination
0° 00' 00"
Sunlit
Object was in daylight at epoch
Visualization orbit readout
Latitude
Unknown
Longitude
Unknown
Altitude
Unknown
Speed
Unknown
Apparent Right ascension
Unknown
Apparent Declination
Unknown
Sunlit
N/A
Visualization observer readout
Local Sidereal Time
02:46:28
Azimuth
Unknown
Elevation
Unknown
Doppler factor
Unknown
Orbital elements
Apogee altitude
359.724 km
Perigee altitude
356.708 km
Semi-major axis
6,736.353 km
Eccentricity
0.00022
Inclination
42.9989°
RAAN
354.3635°
Arg. of periapsis
296.5034°
True anomaly
63.58338°
Mean anomaly
63.5604°
Eccentric anomaly
63.57189°
Mean motion
3.9256 °/min
Orbital period
91.71 mins
BSTAR
0.0019221
Loading maneuver chart data...
Computing Atmospheric mass density...
Loading historical data...
Loading historical data...
Loading historical data...
Loading historical data...
Loading historical data...
Loading historical data...
Loading historical data...

Documentation

Showing up to 5 results
|